| time (UTC) | temp F | wind direction | speed MPH | gust MPH | rain 1hr in | rain 24hr in | rain mn in | humidity % | barometer mb |
| 20260831010019 | 68 | 275 | 4.0 | 10.0 | 0.00 | 0.00 | 0.00 | 34 | 1016.7 |
| 20260831005520 | 68 | 309 | 5.0 | 8.0 | 0.00 | 0.00 | 0.00 | 34 | 1016.5 |
| 20260831005019 | 68 | 222 | 3.0 | 8.0 | 0.00 | 0.00 | 0.00 | 34 | 1016.5 |
| 20260831004515 | 68 | 258 | 8.0 | 10.0 | 0.00 | 0.00 | 0.00 | 34 | 1016.8 |
| 20260831004010 | 68 | 275 | 8.0 | 18.0 | 0.00 | 0.00 | 0.00 | 34 | 1016.7 |
| 20260831003506 | 69 | 307 | 4.0 | 11.0 | 0.00 | 0.00 | 0.00 | 34 | 1016.8 |
| 20260831003001 | 68 | 356 | 9.0 | 15.0 | 0.00 | 0.00 | 0.00 | 33 | 1016.6 |
| 20260831002500 | 69 | 296 | 7.0 | 14.0 | 0.00 | 0.00 | 0.00 | 33 | 1016.7 |
| 20260831001955 | 69 | 330 | 5.0 | 15.0 | 0.00 | 0.00 | 0.00 | 33 | 1016.2 |
| 20260831001450 | 69 | 319 | 4.0 | 12.0 | 0.00 | 0.00 | 0.00 | 34 | 1016.5 |
| 20260831000948 | 69 | 277 | 5.0 | 15.0 | 0.00 | 0.00 | 0.00 | 33 | 1016.5 |
| 20260831000443 | 69 | 275 | 9.0 | 15.0 | 0.00 | 0.00 | 0.00 | 32 | 1016.6 |
| 20260830235941 | 69 | 311 | 5.0 | 12.0 | 0.00 | 0.00 | 0.00 | 33 | 1016.5 |
| 20260830235436 | 69 | 286 | 4.0 | 13.0 | 0.00 | 0.00 | 0.00 | 34 | 1016.6 |
| 20260830234932 | 69 | 15 | 5.0 | 14.0 | 0.00 | 0.00 | 0.00 | 33 | 1016.6 |
| 20260830234427 | 69 | 298 | 5.0 | 12.0 | 0.00 | 0.00 | 0.00 | 32 | 1016.5 |
| 20260830233923 | 70 | 330 | 6.0 | 7.0 | 0.00 | 0.00 | 0.00 | 33 | 1016.5 |
| 20260830233418 | 70 | 270 | 7.0 | 14.0 | 0.00 | 0.00 | 0.00 | 33 | 1016.4 |
| 20260830232913 | 69 | 259 | 6.0 | 11.0 | 0.00 | 0.00 | 0.00 | 34 | 1016.5 |
| 20260830232409 | 69 | 292 | 5.0 | 11.0 | 0.00 | 0.00 | 0.00 | 33 | 1016.5 |
| 20260830231906 | 69 | 268 | 5.0 | 9.0 | 0.00 | 0.00 | 0.00 | 34 | 1016.4 |
| 20260830231401 | 68 | 298 | 7.0 | 8.0 | 0.00 | 0.00 | 0.00 | 34 | 1016.5 |
| 20260830230900 | 69 | 313 | 3.0 | 13.0 | 0.00 | 0.00 | 0.00 | 34 | 1016.4 |
| 20260830230355 | 69 | 249 | 3.0 | 9.0 | 0.00 | 0.00 | 0.00 | 34 | 1016.4 |
| 20260830225854 | 69 | 280 | 9.0 | 13.0 | 0.00 | 0.00 | 0.00 | 33 | 1016.8 |
| 20260830225350 | 68 | 315 | 8.0 | 17.0 | 0.00 | 0.00 | 0.00 | 33 | 1016.5 |
| 20260830224844 | 69 | 290 | 3.0 | 9.0 | 0.00 | 0.00 | 0.00 | 32 | 1016.6 |
| 20260830224338 | 69 | 265 | 12.0 | 20.0 | 0.00 | 0.00 | 0.00 | 33 | 1016.4 |
| 20260830223836 | 70 | 320 | 7.0 | 17.0 | 0.00 | 0.00 | 0.00 | 32 | 1016.1 |
| 20260830223332 | 70 | 287 | 4.0 | 10.0 | 0.00 | 0.00 | 0.00 | 32 | 1016.4 |
| 20260830222831 | 69 | 318 | 5.0 | 11.0 | 0.00 | 0.00 | 0.00 | 32 | 1016.6 |
| 20260830222326 | 70 | 279 | 9.0 | 13.0 | 0.00 | 0.00 | 0.00 | 31 | 1016.1 |
| 20260830221821 | 70 | 266 | 6.0 | 11.0 | 0.00 | 0.00 | 0.00 | 32 | 1016.5 |
| 20260830221318 | 70 | 336 | 6.0 | 10.0 | 0.00 | 0.00 | 0.00 | 33 | 1016.5 |
| 20260830220812 | 70 | 277 | 8.0 | 13.0 | 0.00 | 0.00 | 0.00 | 33 | 1016.8 |
| 20260830220312 | 70 | 264 | 3.0 | 10.0 | 0.00 | 0.00 | 0.00 | 35 | 1016.9 |
| 20260830215810 | 70 | 346 | 5.0 | 7.0 | 0.00 | 0.00 | 0.00 | 33 | 1016.6 |
| 20260830215306 | 69 | 299 | 5.0 | 13.0 | 0.00 | 0.00 | 0.00 | 35 | 1016.6 |
| 20260830214800 | 68 | 296 | 5.0 | 10.0 | 0.00 | 0.00 | 0.00 | 36 | 1016.6 |
| 20260830214255 | 67 | 264 | 5.0 | 13.0 | 0.00 | 0.00 | 0.00 | 36 | 1016.7 |
| 20260830213754 | 67 | 281 | 5.0 | 9.0 | 0.00 | 0.00 | 0.00 | 36 | 1016.6 |
| 20260830213249 | 65 | 295 | 7.0 | 9.0 | 0.00 | 0.00 | 0.00 | 36 | 1016.8 |
| 20260830212745 | 66 | 350 | 3.0 | 11.0 | 0.00 | 0.00 | 0.00 | 35 | 1016.6 |
| 20260830212241 | 66 | 243 | 5.0 | 11.0 | 0.00 | 0.00 | 0.00 | 36 | 1016.7 |
| 20260830211740 | 67 | 3 | 3.0 | 11.0 | 0.00 | 0.00 | 0.00 | 35 | 1016.8 |
| 20260830211239 | 68 | 266 | 5.0 | 11.0 | 0.00 | 0.00 | 0.00 | 36 | 1016.7 |
| 20260830210736 | 68 | 255 | 2.0 | 16.0 | 0.00 | 0.00 | 0.00 | 35 | 1016.8 |
| 20260830210234 | 69 | 246 | 4.0 | 10.0 | 0.00 | 0.00 | 0.00 | 36 | 1016.7 |
| 20260830205732 | 68 | 41 | 2.0 | 8.0 | 0.00 | 0.00 | 0.00 | 34 | 1017.0 |
| 20260830205227 | 68 | 289 | 5.0 | 10.0 | 0.00 | 0.00 | 0.00 | 35 | 1016.6 |
| 20260830204722 | 69 | 297 | 5.0 | 10.0 | 0.00 | 0.00 | 0.00 | 35 | 1016.9 |
| 20260830204221 | 68 | 255 | 2.0 | 13.0 | 0.00 | 0.00 | 0.00 | 37 | 1017.0 |
| 20260830203717 | 67 | 263 | 10.0 | 29.0 | 0.00 | 0.00 | 0.00 | 34 | 1016.8 |
| 20260830203213 | 66 | 272 | 6.0 | 15.0 | 0.00 | 0.00 | 0.00 | 35 | 1017.0 |
| 20260830202712 | 65 | 270 | 6.0 | 17.0 | 0.00 | 0.00 | 0.00 | 35 | 1017.0 |
| 20260830202208 | 65 | 277 | 3.0 | 9.0 | 0.00 | 0.00 | 0.00 | 35 | 1016.8 |
| 20260830201707 | 65 | 228 | 2.0 | 10.0 | 0.00 | 0.00 | 0.00 | 38 | 1016.9 |
| 20260830201202 | 65 | 264 | 8.0 | 15.0 | 0.00 | 0.00 | 0.00 | 35 | 1016.8 |
| 20260830200658 | 65 | 280 | 6.0 | 17.0 | 0.00 | 0.00 | 0.00 | 35 | 1016.8 |
| 20260830200157 | 65 | 188 | 2.0 | 17.0 | 0.00 | 0.00 | 0.00 | 35 | 1016.9 |
| 20260830195652 | 66 | 285 | 5.0 | 10.0 | 0.00 | 0.00 | 0.00 | 36 | 1016.9 |
| 20260830195150 | 66 | 289 | 5.0 | 14.0 | 0.00 | 0.00 | 0.00 | 35 | 1016.9 |
| 20260830194650 | 65 | 261 | 5.0 | 15.0 | 0.00 | 0.00 | 0.00 | 36 | 1016.9 |
| 20260830194150 | 65 | 348 | 2.0 | 10.0 | 0.00 | 0.00 | 0.00 | 36 | 1016.9 |
| 20260830193644 | 64 | 239 | 5.0 | 12.0 | 0.00 | 0.00 | 0.00 | 37 | 1016.8 |
| 20260830193139 | 66 | 281 | 7.0 | 13.0 | 0.00 | 0.00 | 0.00 | 35 | 1017.0 |
| 20260830192634 | 65 | 6 | 4.0 | 13.0 | 0.00 | 0.00 | 0.00 | 36 | 1017.0 |
| 20260830192129 | 65 | 253 | 6.0 | 7.0 | 0.00 | 0.00 | 0.00 | 37 | 1017.1 |
| 20260830191624 | 64 | 286 | 2.0 | 14.0 | 0.00 | 0.00 | 0.00 | 38 | 1017.1 |
| 20260830191119 | 63 | 189 | 5.0 | 15.0 | 0.00 | 0.00 | 0.00 | 38 | 1017.2 |
| 20260830190610 | 63 | 278 | 7.0 | 11.0 | 0.00 | 0.00 | 0.00 | 39 | 1017.0 |
| 20260830190110 | 63 | 292 | 8.0 | 11.0 | 0.00 | 0.00 | 0.00 | 39 | 1017.2 |
| 20260830185603 | 63 | 248 | 3.0 | 15.0 | 0.00 | 0.00 | 0.00 | 39 | 1017.1 |
| 20260830185059 | 64 | 249 | 3.0 | 5.0 | 0.00 | 0.00 | 0.00 | 41 | 1017.4 |
| 20260830184557 | 64 | 248 | 2.0 | 9.0 | 0.00 | 0.00 | 0.00 | 41 | 1017.5 |
| 20260830184052 | 63 | 297 | 4.0 | 7.0 | 0.00 | 0.00 | 0.00 | 40 | 1017.2 |
| 20260830183547 | 63 | 231 | 3.0 | 11.0 | 0.00 | 0.00 | 0.00 | 41 | 1017.6 |
| 20260830183043 | 62 | 234 | 7.0 | 8.0 | 0.00 | 0.00 | 0.00 | 44 | 1017.7 |
| 20260830182538 | 62 | 319 | 4.0 | 8.0 | 0.00 | 0.00 | 0.00 | 45 | 1017.8 |
| 20260830182034 | 62 | 239 | 7.0 | 10.0 | 0.00 | 0.00 | 0.00 | 43 | 1017.7 |
| 20260830181531 | 61 | 164 | 5.0 | 13.0 | 0.00 | 0.00 | 0.00 | 44 | 1017.8 |
| 20260830181030 | 61 | 162 | 3.0 | 15.0 | 0.00 | 0.00 | 0.00 | 44 | 1018.0 |
| 20260830180529 | 61 | 191 | 9.0 | 13.0 | 0.00 | 0.00 | 0.00 | 45 | 1017.7 |
| 20260830180028 | 61 | 286 | 9.0 | 12.0 | 0.00 | 0.00 | 0.00 | 46 | 1017.9 |
| 20260830175528 | 61 | 268 | 7.0 | 14.0 | 0.00 | 0.00 | 0.00 | 45 | 1017.9 |
| 20260830175023 | 61 | 215 | 8.0 | 16.0 | 0.00 | 0.00 | 0.00 | 46 | 1017.8 |
| 20260830174519 | 61 | 245 | 7.0 | 14.0 | 0.00 | 0.00 | 0.00 | 45 | 1017.9 |
| 20260830174014 | 61 | 217 | 4.0 | 12.0 | 0.00 | 0.00 | 0.00 | 47 | 1018.1 |
| 20260830173509 | 60 | 247 | 5.0 | 11.0 | 0.00 | 0.00 | 0.00 | 47 | 1017.9 |
| 20260830173010 | 60 | 278 | 1.0 | 8.0 | 0.00 | 0.00 | 0.00 | 47 | 1017.9 |
| 20260830172506 | 62 | 231 | 6.0 | 7.0 | 0.00 | 0.00 | 0.00 | 46 | 1018.0 |
| 20260830172002 | 61 | 342 | 7.0 | 8.0 | 0.00 | 0.00 | 0.00 | 47 | 1018.1 |
| 20260830171457 | 61 | 285 | 6.0 | 11.0 | 0.00 | 0.00 | 0.00 | 48 | 1018.0 |
| 20260830170957 | 59 | 280 | 7.0 | 9.0 | 0.00 | 0.00 | 0.00 | 50 | 1018.1 |
| 20260830170452 | 59 | 220 | 0.0 | 6.0 | 0.00 | 0.00 | 0.00 | 50 | 1018.0 |
| 20260830165950 | 59 | 284 | 5.0 | 7.0 | 0.00 | 0.00 | 0.00 | 50 | 1018.1 |
| 20260830165447 | 58 | 267 | 4.0 | 10.0 | 0.00 | 0.00 | 0.00 | 50 | 1018.0 |
| 20260830164942 | 59 | 296 | 3.0 | 10.0 | 0.00 | 0.00 | 0.00 | 49 | 1018.3 |
| 20260830164438 | 60 | 260 | 4.0 | 7.0 | 0.00 | 0.00 | 0.00 | 50 | 1018.1 |
| 20260830163934 | 60 | 270 | 6.0 | 7.0 | 0.00 | 0.00 | 0.00 | 48 | 1018.0 |
| 20260830163430 | 60 | 198 | 3.0 | 5.0 | 0.00 | 0.00 | 0.00 | 50 | 1018.0 |
| 20260830162929 | 59 | 270 | 0.0 | 6.0 | 0.00 | 0.00 | 0.00 | 51 | 1018.0 |
| 20260830162426 | 58 | 14 | 4.0 | 6.0 | 0.00 | 0.00 | 0.00 | 52 | 1017.9 |
| 20260830161925 | 58 | 289 | 2.0 | 6.0 | 0.00 | 0.00 | 0.00 | 51 | 1018.3 |
| 20260830161425 | 59 | 309 | 3.0 | 6.0 | 0.00 | 0.00 | 0.00 | 50 | 1018.1 |
| 20260830160920 | 58 | 235 | 2.0 | 5.0 | 0.00 | 0.00 | 0.00 | 53 | 1018.2 |
| 20260830160417 | 57 | 289 | 2.0 | 5.0 | 0.00 | 0.00 | 0.00 | 55 | 1018.2 |
| 20260830155911 | 56 | 266 | 0.0 | 3.0 | 0.00 | 0.00 | 0.00 | 56 | 1018.2 |
| 20260830155408 | 56 | 308 | 2.0 | 4.0 | 0.00 | 0.00 | 0.00 | 57 | 1018.2 |
| 20260830154903 | 56 | 255 | 0.0 | 4.0 | 0.00 | 0.00 | 0.00 | 55 | 1018.3 |
| 20260830154358 | 55 | 70 | 2.0 | 3.0 | 0.00 | 0.00 | 0.00 | 57 | 1018.3 |
| 20260830153855 | 54 | 93 | 3.0 | 4.0 | 0.00 | 0.00 | 0.00 | 58 | 1018.3 |
| 20260830153350 | 54 | 23 | 3.0 | 3.0 | 0.00 | 0.00 | 0.00 | 59 | 1018.5 |
| 20260830152849 | 54 | 32 | 0.0 | 4.0 | 0.00 | 0.00 | 0.00 | 58 | 1018.6 |
| 20260830152344 | 55 | 28 | 4.0 | 4.0 | 0.00 | 0.00 | 0.00 | 56 | 1018.6 |
| 20260830151838 | 56 | 19 | 2.0 | 4.0 | 0.00 | 0.00 | 0.00 | 55 | 1018.2 |
| 20260830151337 | 54 | 56 | 2.0 | 5.0 | 0.00 | 0.00 | 0.00 | 58 | 1018.5 |
| 20260830150833 | 54 | 93 | 3.0 | 6.0 | 0.00 | 0.00 | 0.00 | 58 | 1018.2 |
| 20260830150332 | 55 | 99 | 4.0 | 6.0 | 0.00 | 0.00 | 0.00 | 59 | 1018.5 |
| 20260830145827 | 55 | 75 | 3.0 | 3.0 | 0.00 | 0.00 | 0.00 | 58 | 1018.6 |
| 20260830145322 | 53 | 90 | 5.0 | 5.0 | 0.00 | 0.00 | 0.00 | 60 | 1018.3 |
| 20260830144817 | 52 | 66 | 1.0 | 4.0 | 0.00 | 0.00 | 0.00 | 62 | 1018.7 |
| 20260830144313 | 52 | 107 | 3.0 | 4.0 | 0.00 | 0.00 | 0.00 | 64 | 1018.3 |
| 20260830143809 | 51 | 354 | 4.0 | 4.0 | 0.00 | 0.00 | 0.00 | 64 | 1018.1 |
| 20260830143308 | 52 | 64 | 3.0 | 4.0 | 0.00 | 0.00 | 0.00 | 64 | 1018.0 |
| 20260830142803 | 54 | 173 | 0.0 | 1.0 | 0.00 | 0.00 | 0.00 | 60 | 1018.0 |
| 20260830142258 | 54 | 273 | 3.0 | 3.0 | 0.00 | 0.00 | 0.00 | 61 | 1018.2 |
| 20260830141753 | 52 | 78 | 2.0 | 4.0 | 0.00 | 0.00 | 0.00 | 63 | 1018.2 |
| 20260830141248 | 53 | 96 | 3.0 | 3.0 | 0.00 | 0.00 | 0.00 | 63 | 1018.1 |
| 20260830140743 | 51 | 98 | 1.0 | 2.0 | 0.00 | 0.00 | 0.00 | 64 | 1018.1 |
| 20260830140238 | 50 | 346 | 0.0 | 0.0 | 0.00 | 0.00 | 0.00 | 66 | 1018.0 |
| 20260830135732 | 49 | 35 | 1.0 | 2.0 | 0.00 | 0.00 | 0.00 | 70 | 1018.1 |
| 20260830135228 | 47 | 106 | 0.0 | 1.0 | 0.00 | 0.00 | 0.00 | 72 | 1018.0 |
| 20260830134723 | 46 | 123 | 3.0 | 3.0 | 0.00 | 0.00 | 0.00 | 72 | 1018.0 |
| 20260830134218 | 46 | 99 | 2.0 | 5.0 | 0.00 | 0.00 | 0.00 | 71 | 1018.0 |
| 20260830133714 | 46 | 90 | 3.0 | 4.0 | 0.00 | 0.00 | 0.00 | 72 | 1017.8 |
| 20260830133209 | 46 | 83 | 3.0 | 4.0 | 0.00 | 0.00 | 0.00 | 73 | 1017.9 |
| 20260830132659 | 46 | 106 | 3.0 | 4.0 | 0.00 | 0.00 | 0.00 | 72 | 1017.8 |
| 20260830132155 | 46 | 78 | 2.0 | 3.0 | 0.00 | 0.00 | 0.00 | 71 | 1017.6 |
| 20260830131654 | 46 | 66 | 1.0 | 2.0 | 0.00 | 0.00 | 0.00 | 71 | 1017.8 |
| 20260830131148 | 46 | 126 | 0.0 | 3.0 | 0.00 | 0.00 | 0.00 | 70 | 1017.7 |
| 20260830130648 | 46 | 194 | 0.0 | 2.0 | 0.00 | 0.00 | 0.00 | 70 | 1017.7 |
| 20260830130143 | 47 | 69 | 1.0 | 3.0 | 0.00 | 0.00 | 0.00 | 70 | 1017.6 |
| 20260830125643 | 47 | 105 | 2.0 | 3.0 | 0.00 | 0.00 | 0.00 | 70 | 1017.4 |
| 20260830125138 | 48 | 90 | 2.0 | 3.0 | 0.00 | 0.00 | 0.00 | 67 | 1017.4 |
| 20260830124636 | 46 | 112 | 3.0 | 3.0 | 0.00 | 0.00 | 0.00 | 71 | 1017.4 |
| 20260830124131 | 47 | 98 | 1.0 | 4.0 | 0.00 | 0.00 | 0.00 | 69 | 1017.5 |
| 20260830123628 | 47 | 131 | 1.0 | 3.0 | 0.00 | 0.00 | 0.00 | 68 | 1017.2 |
| 20260830123123 | 48 | 96 | 3.0 | 5.0 | 0.00 | 0.00 | 0.00 | 66 | 1017.4 |
| 20260830122621 | 47 | 121 | 4.0 | 5.0 | 0.00 | 0.00 | 0.00 | 66 | 1017.6 |
| 20260830122116 | 47 | 111 | 1.0 | 3.0 | 0.00 | 0.00 | 0.00 | 67 | 1017.6 |
| 20260830121612 | 48 | 106 | 4.0 | 6.0 | 0.00 | 0.00 | 0.00 | 66 | 1017.6 |
| 20260830121111 | 48 | 75 | 3.0 | 4.0 | 0.00 | 0.00 | 0.00 | 66 | 1017.5 |
| 20260830120606 | 49 | 90 | 2.0 | 4.0 | 0.00 | 0.00 | 0.00 | 62 | 1017.4 |
| 20260830115559 | 51 | 105 | 2.0 | 2.0 | 0.00 | 0.00 | 0.00 | 60 | 1017.6 |
| 20260830115054 | 51 | 270 | 4.0 | 5.0 | 0.00 | 0.00 | 0.00 | 59 | 1017.4 |
| 20260830114551 | 51 | 248 | 0.0 | 7.0 | 0.00 | 0.00 | 0.00 | 58 | 1017.6 |
| 20260830114050 | 51 | 234 | 6.0 | 8.0 | 0.00 | 0.00 | 0.00 | 57 | 1017.5 |
| 20260830113545 | 51 | 213 | 3.0 | 5.0 | 0.00 | 0.00 | 0.00 | 59 | 1017.2 |
| 20260830113041 | 51 | 297 | 1.0 | 4.0 | 0.00 | 0.00 | 0.00 | 58 | 1017.5 |
| 20260830112536 | 51 | 171 | 0.0 | 3.0 | 0.00 | 0.00 | 0.00 | 58 | 1017.6 |
| 20260830112032 | 51 | 187 | 0.0 | 3.0 | 0.00 | 0.00 | 0.00 | 58 | 1017.6 |
| 20260830111528 | 51 | 165 | 0.0 | 2.0 | 0.00 | 0.00 | 0.00 | 58 | 1017.6 |
| 20260830111024 | 51 | 174 | 1.0 | 3.0 | 0.00 | 0.00 | 0.00 | 57 | 1017.2 |
| 20260830110523 | 51 | 160 | 0.0 | 2.0 | 0.00 | 0.00 | 0.00 | 57 | 1017.7 |
| 20260830110019 | 51 | 168 | 1.0 | 3.0 | 0.00 | 0.00 | 0.00 | 57 | 1017.4 |
| 20260830105514 | 51 | 180 | 3.0 | 4.0 | 0.00 | 0.00 | 0.00 | 57 | 1017.4 |
| 20260830105010 | 51 | 150 | 2.0 | 2.0 | 0.00 | 0.00 | 0.00 | 55 | 1017.4 |
| 20260830104507 | 51 | 180 | 2.0 | 2.0 | 0.00 | 0.00 | 0.00 | 57 | 1017.4 |
| 20260830104002 | 51 | 90 | 1.0 | 4.0 | 0.00 | 0.00 | 0.00 | 57 | 1017.2 |
| 20260830103457 | 52 | 54 | 1.0 | 3.0 | 0.00 | 0.00 | 0.00 | 56 | 1017.2 |
| 20260830102955 | 53 | 144 | 2.0 | 4.0 | 0.00 | 0.00 | 0.00 | 53 | 1017.0 |
| 20260830102450 | 53 | 283 | 4.0 | 11.0 | 0.00 | 0.00 | 0.00 | 52 | 1016.9 |
| 20260830101947 | 53 | 205 | 6.0 | 8.0 | 0.00 | 0.00 | 0.00 | 52 | 1016.9 |
| 20260830101442 | 53 | 249 | 0.0 | 5.0 | 0.00 | 0.00 | 0.00 | 53 | 1016.9 |
| 20260830100941 | 52 | 266 | 3.0 | 6.0 | 0.00 | 0.00 | 0.00 | 54 | 1017.0 |
| 20260830100441 | 51 | 204 | 4.0 | 4.0 | 0.00 | 0.00 | 0.00 | 56 | 1016.9 |
| 20260830095939 | 50 | 232 | 0.0 | 3.0 | 0.00 | 0.00 | 0.00 | 57 | 1016.9 |
| 20260830095436 | 50 | 90 | 1.0 | 2.0 | 0.00 | 0.00 | 0.00 | 60 | 1017.0 |
| 20260830094931 | 50 | 123 | 1.0 | 4.0 | 0.00 | 0.00 | 0.00 | 63 | 1017.2 |
| 20260830094427 | 51 | 98 | 4.0 | 4.0 | 0.00 | 0.00 | 0.00 | 60 | 1017.1 |
| 20260830093923 | 51 | 98 | 2.0 | 4.0 | 0.00 | 0.00 | 0.00 | 56 | 1017.0 |
| 20260830093418 | 52 | 0 | 1.0 | 1.0 | 0.00 | 0.00 | 0.00 | 52 | 1017.0 |
| 20260830092913 | 52 | 95 | 2.0 | 3.0 | 0.00 | 0.00 | 0.00 | 53 | 1017.1 |
| 20260830092409 | 53 | 159 | 3.0 | 3.0 | 0.00 | 0.00 | 0.00 | 50 | 1017.0 |
| 20260830091905 | 53 | 99 | 0.0 | 5.0 | 0.00 | 0.00 | 0.00 | 51 | 1016.9 |
| 20260830091400 | 53 | 177 | 2.0 | 3.0 | 0.00 | 0.00 | 0.00 | 49 | 1016.8 |
| 20260830090858 | 54 | 255 | 1.0 | 3.0 | 0.00 | 0.00 | 0.00 | 48 | 1017.1 |
| 20260830090354 | 52 | 114 | 1.0 | 4.0 | 0.00 | 0.00 | 0.00 | 51 | 1017.0 |
| 20260830085854 | 53 | 107 | 3.0 | 4.0 | 0.00 | 0.00 | 0.00 | 54 | 1017.1 |
| 20260830085349 | 53 | 74 | 0.0 | 3.0 | 0.00 | 0.00 | 0.00 | 53 | 1017.0 |
| 20260830084845 | 54 | 101 | 2.0 | 2.0 | 0.00 | 0.00 | 0.00 | 55 | 1017.1 |
| 20260830084340 | 55 | 165 | 0.0 | 2.0 | 0.00 | 0.00 | 0.00 | 54 | 1017.0 |
| 20260830083835 | 55 | 285 | 2.0 | 3.0 | 0.00 | 0.00 | 0.00 | 50 | 1016.9 |
| 20260830083331 | 54 | 200 | 0.0 | 4.0 | 0.00 | 0.00 | 0.00 | 55 | 1017.0 |
| 20260830082831 | 54 | 145 | 1.0 | 2.0 | 0.00 | 0.00 | 0.00 | 58 | 1016.9 |
| 20260830082326 | 54 | 90 | 0.0 | 2.0 | 0.00 | 0.00 | 0.00 | 57 | 1016.8 |
| 20260830081821 | 55 | 75 | 2.0 | 2.0 | 0.00 | 0.00 | 0.00 | 56 | 1016.7 |
| 20260830081320 | 55 | 66 | 0.0 | 2.0 | 0.00 | 0.00 | 0.00 | 53 | 1016.8 |
| 20260830080815 | 55 | 63 | 2.0 | 2.0 | 0.00 | 0.00 | 0.00 | 52 | 1016.6 |
| 20260830080312 | 55 | 160 | 0.0 | 1.0 | 0.00 | 0.00 | 0.00 | 50 | 1016.7 |
| 20260830075810 | 55 | 60 | 0.0 | 1.0 | 0.00 | 0.00 | 0.00 | 50 | 1016.6 |
| 20260830075307 | 56 | 69 | 0.0 | 1.0 | 0.00 | 0.00 | 0.00 | 50 | 1016.7 |
| 20260830074801 | 56 | 297 | 0.0 | 1.0 | 0.00 | 0.00 | 0.00 | 48 | 1016.5 |
| 20260830074257 | 56 | 90 | 0.0 | 3.0 | 0.00 | 0.00 | 0.00 | 49 | 1016.5 |
| 20260830073753 | 56 | 180 | 1.0 | 1.0 | 0.00 | 0.00 | 0.00 | 51 | 1016.6 |
| 20260830073249 | 55 | 240 | 1.0 | 2.0 | 0.00 | 0.00 | 0.00 | 51 | 1016.4 |
| 20260830072748 | 55 | 154 | 0.0 | 2.0 | 0.00 | 0.00 | 0.00 | 54 | 1016.4 |
| 20260830072244 | 55 | 65 | 2.0 | 5.0 | 0.00 | 0.00 | 0.00 | 58 | 1016.5 |
| 20260830071739 | 55 | 55 | 2.0 | 4.0 | 0.00 | 0.00 | 0.00 | 62 | 1016.1 |
| 20260830071238 | 55 | 101 | 3.0 | 3.0 | 0.00 | 0.00 | 0.00 | 60 | 1016.0 |
| 20260830070737 | 54 | 63 | 4.0 | 5.0 | 0.00 | 0.00 | 0.00 | 68 | 1016.6 |
| 20260830070232 | 53 | 98 | 4.0 | 5.0 | 0.00 | 0.00 | 0.00 | 70 | 1016.4 |
| 20260830065731 | 54 | 78 | 3.0 | 5.0 | 0.00 | 0.00 | 0.00 | 70 | 1016.1 |
| 20260830065226 | 54 | 101 | 3.0 | 5.0 | 0.00 | 0.00 | 0.00 | 69 | 1016.4 |
| 20260830064724 | 55 | 98 | 4.0 | 4.0 | 0.00 | 0.00 | 0.00 | 64 | 1016.4 |
| 20260830064220 | 54 | 93 | 3.0 | 6.0 | 0.00 | 0.00 | 0.00 | 66 | 1016.4 |
| 20260830063714 | 54 | 125 | 0.0 | 6.0 | 0.00 | 0.00 | 0.00 | 70 | 1016.5 |
| 20260830063213 | 54 | 103 | 3.0 | 7.0 | 0.00 | 0.00 | 0.00 | 70 | 1016.2 |
| 20260830062708 | 54 | 99 | 6.0 | 7.0 | 0.00 | 0.00 | 0.00 | 67 | 1016.4 |
| 20260830062202 | 54 | 112 | 3.0 | 4.0 | 0.00 | 0.00 | 0.00 | 67 | 1016.5 |
| 20260830061656 | 54 | 108 | 3.0 | 7.0 | 0.00 | 0.00 | 0.00 | 67 | 1016.0 |
| 20260830061152 | 55 | 76 | 3.0 | 5.0 | 0.00 | 0.00 | 0.00 | 66 | 1015.7 |
| 20260830060649 | 54 | 131 | 2.0 | 2.0 | 0.00 | 0.00 | 0.00 | 67 | 1016.0 |
| 20260830060145 | 55 | 107 | 3.0 | 6.0 | 0.00 | 0.00 | 0.00 | 67 | 1015.9 |
| 20260830055640 | 55 | 82 | 2.0 | 6.0 | 0.00 | 0.10 | 0.10 | 66 | 1015.7 |
| 20260830055137 | 55 | 109 | 8.0 | 9.0 | 0.00 | 0.10 | 0.10 | 65 | 1015.9 |
| 20260830054631 | 55 | 119 | 4.0 | 11.0 | 0.00 | 0.10 | 0.10 | 65 | 1015.8 |
| 20260830054127 | 55 | 70 | 3.0 | 9.0 | 0.00 | 0.10 | 0.10 | 62 | 1015.7 |
| 20260830053622 | 56 | 108 | 4.0 | 5.0 | 0.00 | 0.10 | 0.10 | 59 | 1016.2 |
| 20260830053122 | 56 | 95 | 3.0 | 8.0 | 0.00 | 0.10 | 0.10 | 60 | 1015.9 |
| 20260830052617 | 56 | 68 | 7.0 | 9.0 | 0.00 | 0.10 | 0.10 | 61 | 1015.7 |
| 20260830052113 | 58 | 111 | 5.0 | 5.0 | 0.00 | 0.10 | 0.10 | 58 | 1015.9 |
| 20260830051607 | 60 | 103 | 2.0 | 4.0 | 0.00 | 0.10 | 0.10 | 49 | 1015.5 |
| 20260830051103 | 61 | 225 | 3.0 | 5.0 | 0.00 | 0.10 | 0.10 | 41 | 1016.1 |
| 20260830050600 | 61 | 270 | 3.0 | 5.0 | 0.00 | 0.10 | 0.10 | 39 | 1015.9 |
| 20260830050055 | 62 | 143 | 2.0 | 9.0 | 0.00 | 0.10 | 0.10 | 36 | 1015.8 |
| 20260830045549 | 62 | 6 | 0.0 | 5.0 | 0.00 | 0.10 | 0.10 | 38 | 1015.9 |
| 20260830045044 | 62 | 279 | 3.0 | 9.0 | 0.00 | 0.10 | 0.10 | 37 | 1016.0 |
| 20260830044538 | 62 | 249 | 5.0 | 10.0 | 0.00 | 0.10 | 0.10 | 37 | 1016.0 |
| 20260830044033 | 62 | 277 | 6.0 | 10.0 | 0.00 | 0.10 | 0.10 | 38 | 1015.9 |
| 20260830043529 | 62 | 238 | 5.0 | 14.0 | 0.00 | 0.10 | 0.10 | 38 | 1015.7 |
| 20260830043027 | 62 | 235 | 5.0 | 8.0 | 0.00 | 0.10 | 0.10 | 37 | 1015.9 |
| 20260830042525 | 62 | 232 | 7.0 | 14.0 | 0.00 | 0.10 | 0.10 | 37 | 1015.6 |
| 20260830042021 | 62 | 273 | 12.0 | 14.0 | 0.00 | 0.10 | 0.10 | 38 | 1015.8 |
| 20260830041520 | 62 | 255 | 1.0 | 14.0 | 0.00 | 0.10 | 0.10 | 39 | 1015.5 |
| 20260830041014 | 62 | 263 | 5.0 | 10.0 | 0.00 | 0.10 | 0.10 | 37 | 1014.9 |
| 20260830040509 | 63 | 295 | 13.0 | 15.0 | 0.00 | 0.10 | 0.10 | 36 | 1014.9 |
| 20260830040004 | 63 | 251 | 9.0 | 11.0 | 0.00 | 0.10 | 0.10 | 36 | 1014.7 |
| 20260830035502 | 63 | 232 | 7.0 | 13.0 | 0.00 | 0.10 | 0.10 | 36 | 1014.6 |
| 20260830034958 | 64 | 287 | 4.0 | 9.0 | 0.00 | 0.10 | 0.10 | 38 | 1015.0 |
| 20260830034454 | 64 | 258 | 6.0 | 9.0 | 0.00 | 0.10 | 0.10 | 38 | 1014.7 |
| 20260830033953 | 64 | 265 | 10.0 | 15.0 | 0.00 | 0.10 | 0.10 | 38 | 1014.9 |
| 20260830033448 | 64 | 262 | 5.0 | 21.0 | 0.00 | 0.10 | 0.10 | 40 | 1014.9 |
| 20260830032944 | 64 | 261 | 3.0 | 9.0 | 0.00 | 0.10 | 0.10 | 41 | 1014.7 |
| 20260830032442 | 65 | 275 | 4.0 | 15.0 | 0.00 | 0.10 | 0.10 | 40 | 1014.7 |
| 20260830031938 | 65 | 260 | 6.0 | 13.0 | 0.00 | 0.10 | 0.10 | 41 | 1014.6 |
| 20260830031433 | 65 | 275 | 4.0 | 9.0 | 0.00 | 0.10 | 0.10 | 45 | 1014.2 |
| 20260830030928 | 65 | 281 | 7.0 | 12.0 | 0.00 | 0.10 | 0.10 | 45 | 1014.1 |
| 20260830030424 | 65 | 259 | 3.0 | 11.0 | 0.00 | 0.10 | 0.10 | 45 | 1013.9 |
| 20260830025918 | 66 | 248 | 3.0 | 10.0 | 0.00 | 0.10 | 0.10 | 44 | 1013.7 |
| 20260830025418 | 66 | 301 | 4.0 | 17.0 | 0.00 | 0.10 | 0.10 | 44 | 1013.7 |
| 20260830024917 | 67 | 280 | 3.0 | 12.0 | 0.00 | 0.10 | 0.10 | 43 | 1013.6 |
| 20260830024413 | 67 | 265 | 5.0 | 11.0 | 0.00 | 0.10 | 0.10 | 43 | 1013.5 |
| 20260830023910 | 67 | 290 | 8.0 | 15.0 | 0.00 | 0.10 | 0.10 | 42 | 1013.2 |
| 20260830023409 | 67 | 286 | 5.0 | 13.0 | 0.00 | 0.10 | 0.10 | 42 | 1013.2 |
| 20260830022908 | 67 | 322 | 6.0 | 11.0 | 0.00 | 0.10 | 0.10 | 42 | 1013.0 |
| 20260830022403 | 68 | 254 | 3.0 | 8.0 | 0.00 | 0.10 | 0.10 | 42 | 1013.1 |
| 20260830021858 | 68 | 302 | 4.0 | 8.0 | 0.00 | 0.10 | 0.10 | 42 | 1012.6 |
| 20260830021353 | 68 | 234 | 6.0 | 12.0 | 0.00 | 0.10 | 0.10 | 42 | 1012.6 |
| 20260830020852 | 69 | 243 | 3.0 | 12.0 | 0.00 | 0.10 | 0.10 | 41 | 1012.6 |
| 20260830020347 | 69 | 12 | 7.0 | 12.0 | 0.00 | 0.10 | 0.10 | 41 | 1012.3 |
| 20260830015842 | 69 | 259 | 4.0 | 11.0 | 0.00 | 0.10 | 0.10 | 40 | 1012.3 |
| 20260830015337 | 70 | 282 | 7.0 | 11.0 | 0.00 | 0.10 | 0.10 | 40 | 1011.9 |
| 20260830014833 | 70 | 343 | 7.0 | 12.0 | 0.00 | 0.10 | 0.10 | 40 | 1012.1 |
| 20260830014329 | 70 | 308 | 6.0 | 9.0 | 0.00 | 0.10 | 0.10 | 40 | 1012.0 |
| 20260830013825 | 70 | 283 | 1.0 | 7.0 | 0.00 | 0.10 | 0.10 | 40 | 1012.4 |
| 20260830013319 | 70 | 266 | 3.0 | 13.0 | 0.00 | 0.10 | 0.10 | 39 | 1012.3 |
| 20260830012815 | 71 | 323 | 5.0 | 11.0 | 0.00 | 0.10 | 0.10 | 40 | 1011.8 |
| 20260830012310 | 71 | 266 | 3.0 | 6.0 | 0.00 | 0.10 | 0.10 | 41 | 1011.7 |
| 20260830011806 | 72 | 276 | 3.0 | 10.0 | 0.00 | 0.10 | 0.10 | 40 | 1011.6 |
| 20260830011301 | 73 | 276 | 5.0 | 8.0 | 0.00 | 0.10 | 0.10 | 38 | 1011.5 |
| 20260830010756 | 73 | 254 | 7.0 | 11.0 | 0.00 | 0.10 | 0.10 | 38 | 1011.7 |
| 20260830010250 | 74 | 296 | 5.0 | 15.0 | 0.00 | 0.10 | 0.10 | 38 | 1011.4 |